Regional Weather Roundup
Issued by NWS Upton, NY

Home | Current Version | Previous Version | Text Only | Print | Product List | Glossary On
Versions: 1 2 3 4 5 6 7 8 9 10 11 12 13 14 15 16 17 18 19 20 21 22 23 24 25 26 27 28 29 30 31 32 33 34 35 36 37 38 39 40 41 42 43 44 45 46 47 48 49
033
ASUS41 KOKX 142104
RWROKX

REGIONAL WEATHER ROUNDUP
NATIONAL WEATHER SERVICE NEW YORK NY
400 PM EST SUN FEB 14 2016

NOTE: "FAIR" INDICATES FEW OR NO CLOUDS BELOW 12,000 FEET WITH NO
SIGNIFICANT WEATHER AND/OR OBSTRUCTIONS TO VISIBILITY.

NYZ071-072-176-178-NJZ106-104-142200-
NEW YORK CITY METRO AREA


CITY           SKY/WX    TMP DP  RH WIND       PRES   REMARKS
CENTRAL PARK   SUNNY     15 -16  24 CALM      30.49S
LAGUARDIA APRT SUNNY     16 -13  26 NW8       30.48F WCI   5
KENNEDY INTL   MOSUNNY   17 -16  22 NW12      30.49F WCI   4
NEWARK/LIBERTY SUNNY     17 -17  21 NW12G23   30.49S WCI   4
BRNX BOT. GARD   N/A     18 -15  23 NW5       30.49S WCI  11
TETERBORO      SUNNY     16 -16  23 NW9G20    30.48F WCI   4
$$

NYZ177-179-078>081-142200-
LONG ISLAND NEW YORK

CITY           SKY/WX    TMP DP  RH WIND       PRES   REMARKS
FARMINGDALE    SUNNY     23 -11  22 NW9       30.48S WCI  13
ISLIP          SUNNY     13  -9  37 N9        30.46F WCI   1
SHIRLEY        SUNNY     12  -8  40 NW15      30.47S WCI  -4
RIVERHEAD        N/A     14   5  67 W7        30.42F WCI   4
WESTHAMPTON    SUNNY     10  -8  44 NW15      30.47S WCI  -7
EAST HAMPTON   SUNNY     10 -11  37 NW18      30.43F WCI  -8
MONTAUK POINT    N/A     12  -8  40 NW13      30.44S WCI  -3
$$

NYZ052-065-067-142200-
HUDSON VALLEY

CITY           SKY/WX    TMP DP  RH WIND       PRES   REMARKS
WHITE PLAINS   SUNNY     13 -13  30 NW13      30.43S WCI  -2
NEWBURGH       SUNNY     12 -15  29 NW12      30.44  WCI  -2
MONTGOMERY     SUNNY     15 -15  25 W7        30.43S WCI   5
POUGHKEEPSIE   SUNNY     17 -16  22 N7        30.47R WCI   8
ALBANY         SUNNY      8 -17  31 NW9G18    30.50R WCI  -5
$$

NJZ001-105-106-008-010-013-015-019>022-104-142200-
NEW JERSEY

CITY           SKY/WX    TMP DP  RH WIND       PRES   REMARKS
NEWARK/LIBERTY SUNNY     17 -17  21 NW12G23   30.49S WCI   4
TETERBORO      SUNNY     16 -16  23 NW9G20    30.48F WCI   4
CALDWELL       SUNNY     15 -17  23 NW6       30.48S WCI   6
MORRISTOWN     SUNNY     16 -13  27 CALM      30.48F
SOMERVILLE     SUNNY     17 -14  24 NW8       30.47F WCI   7
SUSSEX         SUNNY     15 -13  27 VRB3      30.43F
ANDOVER          N/A     14 -17  24 W6        30.44S WCI   5
TRENTON        SUNNY     16 -12  28 NW8       30.48F WCI   5
MILLVILLE      SUNNY     20  -7  30 N6        30.50S WCI  12
ATLANTIC CITY  SUNNY     20 -13  22 NW9       30.49S WCI   9
WRIGHTSTOWN    NOT AVBL
TOMS RIVER     SUNNY     18  -9  29 NW12      30.49R WCI   5
BELMAR         SUNNY     16 -13  27 NW12      30.47S WCI   3
$$

PAZ047>061-062-071-142200-
EASTERN PENNSYLVANIA

CITY           SKY/WX    TMP DP  RH WIND       PRES   REMARKS
PHILADELPHIA   MOSUNNY   20 -12  24 N6        30.51S WCI  12
ALLENTOWN      MIX PCPN  16 -10  31 W8        30.47S WCI   5
SCRANTON       SUNNY     11  -9  40 N8        30.41S WCI  -1
$$

CTZ002-004>006-009-010-012-RIZ004-006-007-MAZ004-011-015-142200-
SOUTHERN NEW ENGLAND
 IN CT

CITY           SKY/WX    TMP DP  RH WIND       PRES   REMARKS
BRADLEY INTL   SUNNY      9 -15  33 NW8       30.44S WCI  -3
HARTFORD       SUNNY     11 -15  30 NW13      30.47S WCI  -4
DANBURY        SUNNY     12 -16  27 N10       30.45R WCI  -1
WTRBRY/OXFORD  SUNNY      9 -18  28 NW12G17   30.41S WCI  -6
BRIDGEPORT     SUNNY     13 -14  29 NW10      30.48R WCI   0
MERIDEN        SUNNY     11 -18  26 NW10      30.45S WCI  -3
NEW HAVEN      SUNNY     11 -15  30 NW10      30.46S WCI  -3
CHESTER        FAIR      10 -17  28 NW9       30.41S WCI  -2
GROTON         SUNNY     11   1  64 NW13      30.44S WCI  -4
WILLIMANTIC    SUNNY     11 -16  28 NW10G18   30.42F WCI  -3

 IN RI

CITY           SKY/WX    TMP DP  RH WIND       PRES   REMARKS
PROVIDENCE     SUNNY     11 -17  27 NW12      30.42R WCI  -3
BLOCK ISLAND   SUNNY     12  -8  40 NW14      30.39S WCI  -3
WESTERLY       SUNNY     11 -16  28 NW8G16    30.44R WCI  -1

 IN MA

CITY           SKY/WX    TMP DP  RH WIND       PRES   REMARKS
BOSTON         SUNNY     11 -16  28 NW20G25   30.39R WCI  -7
WORCESTER      SUNNY      7 -17  32 W14       30.31R WCI -10
WESTFIELD      SUNNY      8 -17  31 NW15      30.44R WCI  -9
PROVINCETOWN   SUNNY     13  -1  54 W16G25    30.37R WCI  -3
NANTUCKET      SUNNY     13  -2  51 W13G20    30.39R WCI  -2
$$

ANZ330-335-338-340-345-350-353-355-142200-
COASTAL MARINE OBSERVATIONS


STATION/POSITION TIME  SKY/WX   TEMP    WIND        PRES    VSBY  WAVE
                                AIR SEA DIR/SP/G                  HT/PER
                 (UTC)          (F)     (DEG/KT/KT) (MB)    (MI)  (FT/S)
NY HARB ENTRANCE 1950            13 43  300/ 14/ 17 1032.4          2/ 3
4S FIRE IS       NOT AVBL
20S FIRE ISLAND  1950            12 40  320/ 14/ 19 1032.2          3/ 4
GREAT SOUTH BAY  NOT AVBL
23SW MTP         2050            13 43  310/ 17/ 23 1030.5          4/ 5
HUDSON CANYON    1950            16 48              1031.3          6/ 6
KINGS POINT      2000            13 33  360/  9/ 12 1031.8
EXECUTION ROCKS  NOT AVBL
CENTRAL LI SOUND 2015            12     320/ 16/ 21   N/A           2/ 4
EASTERN LI SOUND 2000            14 39  300/ 12/ 19   N/A
ROBBINS REEF     2000            13     320/ 13/ 15 1031.6
$$


>>>>>>>>>>>>>>>>>>>>>>>>>>>> KEY <<<<<<<<<<<<<<<<<<<<<<<<<<<
>                                                          <
>     SKY/WX - SKY CONDITION/PRESENT WEATHER               <
>     TMP    - TEMPERATURE IN FAHRENHEIT                   <
>     DP     - DEWPOINT IN FAHRENHEIT                      <
>     RH     - RELATIVE HUMIDITY IN PERCENT                <
>     WIND   - DIRECTION AND SPEED IN MPH                  <
>     PRES   - MEAN SEA LEVEL PRESSURE IN INCHES OF HG     <
>     WCI    - WIND CHILL INDEX                            <
>     VSB    - VISIBILITY IN MILES                         <
>     HX     - HEAT INDEX                                  <
>     TC     - TEMPERATURE IN CELSIUS                      <
>     VRB    - VARIABLE WIND DIRECTION                     <
>                                                          <
>>>>>>>>>>>>>>>>>>>>>>>>>>>> KEY <<<<<<<<<<<<<<<<<<<<<<<<<<<






USA.gov is the U.S. government's official web portal to all federal, state and local government web resources and services.